Aniak, AK

3:17 PM AKST on February 25, 2017 (GMT -0900)
Aniak

Weather History for PANI - February, 2014

Change the Weather History Date:

Thursday, February 20, 2014

  Actual Average Record
Temperature  
Mean Temperature -2 °F -  
Max Temperature 10 °F 23 °F 45 °F (2015)
Min Temperature -13 °F 11 °F -34 °F (2017)
Degree Days  
Heating Degree Days 66    
Moisture  
Dew Point -14 °F    
Average Humidity 55    
Maximum Humidity 100    
Minimum Humidity 27    
Precipitation  
Precipitation 0.00 in - - ()
Sea Level Pressure  
Sea Level Pressure 30.02 in    
Wind  
Wind Speed 3 mph (East)    
Max Wind Speed 13 mph    
Max Gust Speed 18 mph    
Visibility 10 miles    
Events      
Averages and records for this station are not official NWS values.
T = Trace of Precipitation, MM = Missing Value Source: NWS Daily Summary

Daily Weather History Graph

Daily Weather History Graph

Search for Another Location

Airport or City:

Trip Planner

Search our weather history database for the weather conditions in past years. The results will help you decide how hot, cold, wet, or windy it might be!

Date:

Astronomy

Feb. 20, 2014 Rise Set
Actual Time 9:06 AM AKST 6:38 PM AKST
Civil Twilight 8:21 AM AKST 7:23 PM AKST
Nautical Twilight 7:30 AM AKST 8:14 PM AKST
Astronomical Twilight 6:39 AM AKST 9:05 PM AKST
Moon 1:20 AM AKST (2/20) 10:12 AM AKST (2/20)
Length of Visible Light 11h 02m
Length of Day
9h 31m
Waning Gibbous, 69% of the Moon is Illuminated
Feb 20
Waning Gibbous
Feb 22
Last Quarter
Feb 28
New
Mar 8
First Quarter
Mar 16
Full

Hourly Weather History & Observations

Time (AKST) Temp. Windchill Dew Point Humidity Pressure Visibility Wind Dir Wind Speed Gust Speed Precip Events Conditions
12:16 AM -7.6 °F - -20.2 °F 54% 29.97 in 9.0 mi Calm Calm - N/A   Clear
12:36 AM -7.6 °F - -23.8 °F 45% 29.98 in 4.0 mi Calm Calm - N/A   Clear
12:56 AM -9.4 °F - - N/A% 29.98 in 9.0 mi Calm Calm - N/A   Clear
1:16 AM -9.4 °F - - N/A% 29.99 in 10.0 mi Calm Calm - N/A   Clear
1:36 AM -7.6 °F - - N/A% 30.00 in 10.0 mi Calm Calm - N/A   Clear
1:56 AM -9.4 °F - - N/A% 30.00 in 10.0 mi Calm Calm - N/A   Clear
2:16 AM -9.4 °F - - N/A% 30.00 in 10.0 mi Calm Calm - N/A   Clear
2:36 AM -9.4 °F - -27.4 °F 41% 30.01 in 10.0 mi Calm Calm - N/A   Clear
2:56 AM -9.4 °F - -20.2 °F 59% 30.02 in 10.0 mi Calm Calm - N/A   Clear
3:16 AM -11.2 °F - -25.6 °F 49% 30.02 in 10.0 mi Calm Calm - N/A   Clear
3:36 AM -11.2 °F -23.0 °F -16.6 °F 77% 30.02 in 10.0 mi East 4.6 mph - N/A   Clear
3:56 AM -9.4 °F -20.9 °F - N/A% 30.02 in 10.0 mi East 4.6 mph - N/A   Clear
4:16 AM -9.4 °F - - N/A% 30.02 in 10.0 mi Calm Calm - N/A   Clear
4:36 AM -11.2 °F - - N/A% 30.02 in 10.0 mi Calm Calm - N/A   Clear
4:56 AM -11.2 °F -20.6 °F - N/A% 30.02 in 10.0 mi ESE 3.5 mph - N/A   Clear
5:16 AM -11.2 °F - - N/A% 30.02 in 10.0 mi Calm Calm - N/A   Clear
5:36 AM -11.2 °F -20.6 °F -29.2 °F 41% 30.02 in 10.0 mi ESE 3.5 mph - N/A   Clear
5:56 AM -9.4 °F -20.9 °F -22.0 °F 54% 30.02 in 10.0 mi East 4.6 mph - N/A   Clear
6:16 AM -9.4 °F -20.9 °F -18.4 °F 65% 30.02 in 10.0 mi ESE 4.6 mph - N/A   Clear
6:36 AM -11.2 °F -23.0 °F -23.8 °F 54% 30.03 in 10.0 mi ESE 4.6 mph - N/A   Clear
6:56 AM -11.2 °F -24.8 °F -18.4 °F 70% 30.03 in 10.0 mi ESE 5.8 mph - N/A   Clear
7:16 AM -11.2 °F -24.8 °F -20.2 °F 64% 30.03 in 10.0 mi ESE 5.8 mph - N/A   Clear
7:36 AM -11.2 °F -23.0 °F -20.2 °F 64% 30.03 in 10.0 mi ESE 4.6 mph - N/A   Clear
7:56 AM -11.2 °F -20.6 °F -18.4 °F 70% 30.03 in 10.0 mi ESE 3.5 mph - N/A   Clear
8:16 AM -11.2 °F -23.0 °F -22.0 °F 59% 30.03 in 10.0 mi SE 4.6 mph - N/A   Clear
8:36 AM -11.2 °F -20.6 °F -18.4 °F 70% 30.03 in 10.0 mi ESE 3.5 mph - N/A   Clear
8:56 AM -11.2 °F -20.6 °F -23.8 °F 54% 30.03 in 10.0 mi SE 3.5 mph - N/A   Clear
9:16 AM -13.0 °F - -18.4 °F 77% 30.02 in 10.0 mi Calm Calm - N/A   Clear
9:36 AM -11.2 °F -23.0 °F -20.2 °F 64% 30.02 in 10.0 mi ESE 4.6 mph - N/A   Clear
9:56 AM -9.4 °F -18.6 °F -13.0 °F 84% 30.02 in 10.0 mi East 3.5 mph - N/A   Clear
10:16 AM -9.4 °F -18.6 °F -23.8 °F 49% 30.02 in 10.0 mi East 3.5 mph - N/A   Clear
10:36 AM -7.6 °F -20.6 °F -9.4 °F 92% 30.03 in 10.0 mi ESE 5.8 mph - N/A   Clear
10:56 AM -7.6 °F -16.5 °F - N/A% 30.03 in 10.0 mi ESE 3.5 mph - N/A   Clear
11:16 AM -5.8 °F -14.5 °F -25.6 °F 38% 30.04 in 10.0 mi ESE 3.5 mph - N/A   Clear
11:36 AM -4.0 °F -14.6 °F -25.6 °F 35% 30.04 in 10.0 mi East 4.6 mph - N/A   Clear
11:56 AM -2.2 °F -12.5 °F -25.6 °F 32% 30.03 in 10.0 mi NE 4.6 mph - N/A   Clear
12:16 PM -0.4 °F -12.0 °F -0.4 °F 100% 30.03 in 10.0 mi ENE 5.8 mph - N/A   Clear
12:36 PM -0.4 °F -14.7 °F -27.4 °F 27% 30.03 in 10.0 mi East 8.1 mph - N/A   Clear
12:56 PM 1.4 °F -13.5 °F -9.4 °F 61% 30.02 in 10.0 mi East 9.2 mph - N/A   Clear
1:16 PM 3.2 °F -11.3 °F -9.4 °F 56% 30.02 in 10.0 mi East 9.2 mph - N/A   Clear
1:36 PM 5.0 °F -9.1 °F -9.4 °F 52% 30.02 in 10.0 mi East 9.2 mph - N/A   Clear
1:56 PM 6.8 °F -5.9 °F -7.6 °F 52% 30.02 in 10.0 mi East 8.1 mph - N/A   Clear
2:16 PM 6.8 °F -9.3 °F -5.8 °F 56% 30.02 in 10.0 mi ESE 12.7 mph - N/A   Clear
2:36 PM 8.6 °F -5.5 °F -5.8 °F 52% 30.02 in 10.0 mi East 10.4 mph - N/A   Clear
2:56 PM 8.6 °F -5.5 °F -5.8 °F 52% 30.02 in 10.0 mi East 10.4 mph - N/A   Clear
3:16 PM 8.6 °F -4.7 °F -5.8 °F 52% 30.01 in 10.0 mi East 9.2 mph - N/A   Clear
3:36 PM 10.4 °F -4.1 °F -7.6 °F 44% 30.01 in 10.0 mi ESE 11.5 mph - N/A   Clear
3:56 PM 10.4 °F -4.1 °F -5.8 °F 48% 30.00 in 10.0 mi East 11.5 mph - N/A   Clear
4:16 PM 10.4 °F -1.5 °F -9.4 °F 41% 30.00 in 10.0 mi East 8.1 mph - N/A   Clear
4:36 PM 10.4 °F -2.4 °F -9.4 °F 41% 30.00 in 10.0 mi East 9.2 mph - N/A   Clear
4:56 PM 10.4 °F -2.4 °F -0.4 °F 62% 30.00 in 10.0 mi ESE 9.2 mph 16.1 mph N/A   Clear
5:16 PM 10.4 °F -4.1 °F -4.0 °F 52% 30.00 in 10.0 mi ESE 11.5 mph - N/A   Clear
5:36 PM 10.4 °F -4.1 °F -2.2 °F 57% 30.00 in 10.0 mi ESE 11.5 mph 18.4 mph N/A   Clear
6:16 PM 10.4 °F -1.5 °F -2.2 °F 57% 30.01 in 10.0 mi ESE 8.1 mph - N/A   Clear
6:36 PM 8.6 °F -3.7 °F -5.8 °F 52% 30.00 in 10.0 mi ESE 8.1 mph - N/A   Clear
6:56 PM 8.6 °F -1.3 °F -4.0 °F 57% 30.01 in 10.0 mi ESE 5.8 mph - N/A   Clear
7:16 PM 8.6 °F -1.3 °F -4.0 °F 57% 30.00 in 10.0 mi East 5.8 mph - N/A   Clear
7:36 PM 6.8 °F -4.8 °F -5.8 °F 56% 30.00 in 10.0 mi East 6.9 mph - N/A   Clear
7:56 PM 6.8 °F -4.8 °F -5.8 °F 56% 30.01 in 10.0 mi East 6.9 mph - N/A   Clear
8:16 PM 6.8 °F -2.0 °F -7.6 °F 52% 30.01 in 10.0 mi East 4.6 mph - N/A   Clear
8:36 PM 5.0 °F -4.1 °F -9.4 °F 52% 30.02 in 10.0 mi ENE 4.6 mph - N/A   Clear
8:56 PM 3.2 °F -4.2 °F -7.6 °F 61% 30.02 in 10.0 mi ENE 3.5 mph - N/A   Clear
9:16 PM 1.4 °F -8.3 °F -9.4 °F 61% 30.02 in 10.0 mi NE 4.6 mph - N/A   Clear
9:36 PM 1.4 °F - -2.2 °F 85% 30.03 in 10.0 mi Calm Calm - N/A   Clear
9:56 PM 1.4 °F -8.3 °F -14.8 °F 47% 30.03 in 10.0 mi ENE 4.6 mph - N/A   Clear
10:16 PM 1.4 °F -6.2 °F -11.2 °F 56% 30.05 in 10.0 mi ENE 3.5 mph - N/A   Clear
10:36 PM -0.4 °F - -7.6 °F 72% 30.05 in 10.0 mi Calm Calm - N/A   Clear
10:56 PM -2.2 °F - -20.2 °F 42% 30.05 in 10.0 mi Calm Calm - N/A   Clear
11:16 PM -2.2 °F -12.5 °F -29.2 °F 27% 30.05 in 10.0 mi ENE 4.6 mph - N/A   Clear
11:36 PM -4.0 °F -14.6 °F - N/A% 30.05 in 10.0 mi East 4.6 mph - N/A   Clear
11:56 PM -2.2 °F -12.5 °F -14.8 °F 55% 30.05 in 10.0 mi ENE 4.6 mph - N/A   Clear